FENGYUN 1C DEB, 30391

Orbit data source: Space-Track

FENGYUN 1C DEB, 30391 is space debris in SSO originally from a launch on Mon, 10 May 1999 UTC launched from the Taiyaun Space Center, China (TSC). Fengyun 1C debris stems from the Chinese weather satellite Fengyun-1C, which was intentionally destroyed by a Chinese anti-satellite missile in 2007. This event dramatically increased the amount of space debris, with thousands of trackable fragments posing hazards to satellites and human spaceflight. The Fengyun 1C debris cloud has become a focal point in discussions about space sustainability and the need for international regulations to prevent the creation of new debris.

Loading next visibility...
Identifier
30391, 1999-025ADE
Orbit
SSO
Country
Flag of CNCN / PRC
Related business
Manufacturer
Unknown
Mission
Spacecraft
Bus & Motor
Unknown
Mass
Unknown
Launch date (UTC)
1999-05-10 (27 years ago)
Launch vehicle
Unknown
Launch site
Taiyaun Space Center, China (TSC)
Object type
Payload
Rocket body
Debris
Shape & HBR
Unknown shape, 0.1 m
Radar Cross Section
Small (<0.1 m²)

Expand to show TLE details & history
Last TLE update: 1 day ago

TLE from 1 day ago
0 FENGYUN 1C DEB
1 30391U 99025ADE 25340.70428348  .00003889  00000-0  19380-2 0  9992
2 30391  98.7811  26.7921 0071142 279.4363 201.3274 14.16197077967934
Epoch: 2025-12-06T16:54Z
TLE epoch observation values (Epoch: 2025-12-06T16:54:10.092Z)
Latitude
58.5048°
Longitude
-107.95336°
Altitude
895.969 km
Speed
7.385 km/s
True Right ascension
14h 45m 16s
True Declination
58° 21' 15"
Sunlit
Object was in daylight at epoch
Visualization orbit readout
Latitude
Unknown
Longitude
Unknown
Altitude
Unknown
Speed
Unknown
Apparent Right ascension
Unknown
Apparent Declination
Unknown
Sunlit
N/A
Visualization observer readout
Local Sidereal Time
15:10:44
Azimuth
Unknown
Elevation
Unknown
Doppler factor
Unknown
Orbital elements
Apogee altitude
886.728 km
Perigee altitude
784.091 km
Semi-major axis
7,213.547 km
Eccentricity
0.00711
Inclination
98.7811°
RAAN
26.7921°
Arg. of periapsis
279.4363°
True anomaly
201.03334°
Mean anomaly
201.3274°
Eccentric anomaly
201.18013°
Mean motion
3.54258 °/min
Orbital period
101.62 mins
BSTAR
0.001938
Loading maneuver chart data...
Computing Atmospheric mass density...

Documentation

Showing up to 5 results
|